This demonstration page uses our WeatherBlox Daily Observations layout. Learn more.

38.89511, -77.03637

Hourly Observations for June 21, 2020

Temp ( °F °C ) Dew Point ( °F °C ) Humidity (%) Winds ( mph kmh ) Pressure ( in mb ) Visibility ( mi km ) Precip ( " mm )
12:52 am 00:52 Mostly Clear 71 21.7 68 20 90 90 Calm 30 1016 10 16.0934 0 0
1:23 am 01:23 Mostly Cloudy 71 21.7 68 20 90 90 Calm 30 1016 10 16.0934 0 0
1:52 am 01:52 Partly Cloudy 71 21.7 68 20 90 90 Calm 30 1016 10 16.0934 0 0
2:10 am 02:10 Mostly Cloudy 71 21.7 68 20 90 90 Calm 30 1016 10 16.0934 0 0
2:52 am 02:52 Cloudy 71 21.7 68 20 90 90 NE 5 7 30.01 1016 8 12.87472 0 0
3:04 am 03:04 Cloudy 71 21.7 69 20.6 94 94 NE 3 6 30.01 1016 9 14.48406 0 0
3:45 am 03:45 Cloudy 71 21.7 68 20 90 90 Calm 30 1016 10 16.0934 0 0
3:52 am 03:52 Cloudy 71 21.7 68 20 90 90 Calm 30 1016 10 16.0934 0 0
4:52 am 04:52 Cloudy 71 21.7 68 20 90 90 ENE 6 9 30 1016 10 16.0934 0 0
5:07 am 05:07 Cloudy 71 21.7 69 20.6 94 94 ENE 6 9 30 1016 9 14.48406 0 0
5:52 am 05:52 Cloudy with Mist and Fog 71 21.7 69 20.6 94 94 E 6 9 30 1016 5 8.0467 0 0
6:25 am 06:25 Cloudy with Mist and Fog 70 21.1 69 20.6 97 97 ENE 5 7 30.02 1017 5 8.0467 0 0
6:38 am 06:38 Cloudy with Mist and Fog 70 21.1 69 20.6 97 97 NE 6 9 30.02 1017 5 8.0467 0 0
6:52 am 06:52 Cloudy 71 21.7 69 20.6 94 94 ENE 5 7 30.02 1017 9 14.48406 0 0
7:37 am 07:37 Cloudy 71 21.7 69 20.6 94 94 E 5 7 30.02 1017 10 16.0934 0 0
7:52 am 07:52 Cloudy 72 22.2 69 20.6 91 91 NE 6 9 30.03 1017 10 16.0934 0 0
8:52 am 08:52 Cloudy 72 22.2 68 20 87 87 E 5 7 30.03 1017 10 16.0934 0 0
9:01 am 09:01 Cloudy 73 22.8 69 20.6 87 87 Calm 30.03 1017 10 16.0934 0 0
9:34 am 09:34 Mostly Cloudy 75 23.9 68 20 79 79 N 3 6 30.03 1017 10 16.0934 0 0
9:52 am 09:52 Mostly Cloudy 77 25 69 20.6 77 77 NE 3 6 30.03 1017 10 16.0934 0 0
10:17 am 10:17 Mostly Cloudy 77 25 69 20.6 77 77 NNE 5 7 30.03 1017 10 16.0934 0 0
10:24 am 10:24 Mostly Cloudy 78 25.6 69 20.6 74 74 NNE 3 6 30.03 1017 10 16.0934 0 0
10:52 am 10:52 Mostly Cloudy 79 26.1 69 20.6 72 72 Calm 30.03 1017 10 16.0934 0 0
11:52 am 11:52 Mostly Cloudy 81 27.2 70 21.1 69 69 Calm 30.03 1017 10 16.0934 0 0
12:52 pm 12:52 Partly Cloudy 81 27.2 69 20.6 67 67 SE 5 7 30.02 1017 10 16.0934 0 0
1:52 pm 13:52 Partly Cloudy 83 28.3 69 20.6 63 63 W 6 9 30.01 1016 10 16.0934 0 0
2:52 pm 14:52 Partly Cloudy 83 28.3 68 20 61 61 SSE 6 9 29.99 1016 10 16.0934 0 0
3:47 pm 15:47 Mostly Cloudy with Nearby Thunderstorms 84 29 66 19 55 55 Calm 29.98 1015 10 16.0934 0 0
3:52 pm 15:52 Mostly Cloudy with Nearby Thunderstorms 85 29.4 66 18.9 53 53 Calm 29.97 1015 10 16.0934 0 0
3:58 pm 15:58 Mostly Cloudy 84 28.9 67 19.4 57 57 Calm 29.97 1015 10 16.0934 0 0
4:52 pm 16:52 Mostly Cloudy 81 27.2 70 21.1 69 69 E 13 20 29.97 1015 10 16.0934 0 0
5:52 pm 17:52 Partly Cloudy 81 27.2 68 20 65 65 ESE 8 13 29.96 1015 10 16.0934 0 0
6:52 pm 18:52 Mostly Sunny 82 27.8 69 20.6 65 65 SE 8 13 29.95 1014 10 16.0934 0 0
7:52 pm 19:52 Mostly Sunny 80 26.7 70 21.1 71 71 SE 9 15 29.94 1014 10 16.0934 0 0
8:52 pm 20:52 Mostly Clear 79 26.1 69 20.6 72 72 SSE 7 11 29.96 1015 10 16.0934 0 0
9:52 pm 21:52 Clear 78 25.6 69 20.6 74 74 SSE 7 11 29.98 1015 10 16.0934 0 0
10:52 pm 22:52 Mostly Cloudy 76 24.4 68 20 77 77 SSE 9 15 29.98 1015 10 16.0934 0 0
11:52 pm 23:52 Mostly Cloudy 75 23.9 68 20 79 79 S 9 15 29.99 1016 10 16.0934 0 0

Powered by AerisWeather